RH
14 18 17 14 15 12 5 16 17 20 24 23 23 24 20 22 26 36 43 72 73 87 94 99 96 94 86 62 35 19 17 19 24 26 55 66 54 43 5 4 5 6 9 10 10 11 11
8 11 17 18 14 16 13 6 16 18 20 23 24 26 26 23 24 29 35 34 46 43 61 54 51 43 38 28 21 16 18 27 43 46 47 65 59 36 5 8 9 10 11 10 9 8 7
3 5 8 14 18 14 15 13 7 15 21 21 22 25 28 24 23 24 27 25 36 33 35 49 50 46 30 23 19 17 19 25 62 71 64 52 40 12 11 12 12 11 10 10 8 8 8
8 5 3 5 11 18 14 14 13 8 14 24 20 22 27 28 22 22 23 27 23 28 34 32 38 38 26 20 15 16 17 17 15 62 62 50 36 13 14 15 14 12 12 8 5 6 4
13 13 11 7 4 8 18 14 14 12 12 10 23 19 22 27 24 20 21 24 27 26 28 32 28 25 19 17 15 13 12 11 9 9 11 15 17 16 15 13 10 11 6 6 5 4 4
6 7 10 13 12 6 6 18 14 13 9 16 11 20 19 21 24 22 21 21 24 27 22 24 22 19 17 17 16 16 13 14 15 16 17 16 16 15 14 14 7 5 4 5 6 10 12
5 5 5 6 11 14 9 6 18 14 14 7 16 10 20 19 18 22 22 21 21 22 19 18 21 22 16 17 17 17 17 17 16 17 16 16 15 13 11 10 6 7 7 6 10 11 13
5 4 4 4 5 8 13 12 7 18 13 14 7 12 6 17 14 18 20 19 19 18 16 12 16 18 16 16 16 16 16 16 15 15 14 13 12 10 8 6 4 7 20 20 18 18 18
6 6 6 4 3 4 6 11 14 8 18 13 13 7 10 6 8 13 15 17 20 17 13 10 12 15 16 15 15 15 14 13 12 12 11 8 8 6 5 5 5 7 12 15 17 18 21
4 5 6 6 5 4 3 5 10 15 10 18 14 13 8 7 9 9 13 13 18 22 25 11 11 13 15 14 13 12 12 11 10 8 7 8 8 7 7 13 16 20 14 13 18 26 29
15 7 4 5 5 5 4 3 4 9 15 11 18 15 12 9 7 11 13 22 25 22 48 23 10 12 12 15 16 11 11 11 10 9 9 11 10 14 16 18 18 17 20 28 32 28 21
44 28 17 4 4 4 4 4 3 4 10 15 15 16 16 10 9 8 13 26 13 17 28 30 19 15 10 14 20 15 14 15 17 18 13 16 21 23 26 23 20 25 31 32 23 23 52
38 50 46 16 5 4 4 4 4 3 4 11 14 19 17 16 8 9 9 24 16 17 15 26 29 20 15 18 28 29 17 16 20 28 29 28 30 27 29 28 30 31 25 30 51 67 58
2 7 46 58 21 9 5 4 4 4 4 6 14 14 21 19 15 8 12 20 17 12 11 21 22 32 24 25 30 34 33 31 28 25 26 32 32 27 23 29 23 24 22 18 38 72 68
1 1 3 28 71 46 23 11 5 5 4 7 9 15 14 23 20 12 11 19 13 11 13 18 22 31 32 30 29 29 31 27 24 18 13 14 15 20 21 24 21 25 30 25 32 53 52
2 2 1 2 32 87 65 40 27 14 9 10 12 13 16 22 24 18 14 12 8 7 11 15 17 17 23 25 28 29 27 22 18 15 10 13 16 26 25 25 26 30 29 34 32 57 54
8 15 5 31 11 84 100 90 69 65 24 18 17 17 15 20 25 23 17 13 11 8 9 11 9 13 14 11 16 18 17 12 11 9 9 12 16 34 36 32 26 38 38 31 34 34 63
65 65 76 99 100 100 78 99 98 85 74 28 29 26 19 22 26 27 22 18 14 12 10 9 9 7 10 8 8 10 8 8 8 9 10 13 25 27 34 32 30 30 34 31 31 42 50
85 63 93 95 96 98 100 98 99 96 87 70 48 40 30 32 29 26 23 21 18 16 13 10 9 9 8 10 20 18 9 10 11 13 13 14 22 31 40 38 36 36 32 32 36 39 45
43 71 78 91 94 94 98 98 98 98 98 97 68 56 46 42 37 30 27 26 24 19 15 14 12 10 10 10 10 16 18 16 13 13 17 21 21 20 27 24 27 34 29 33 39 46 41
67 56 72 86 95 92 95 98 98 97 98 98 93 63 51 45 39 34 32 31 28 25 20 15 15 14 9 11 15 17 16 16 17 18 20 27 29 27 28 27 28 30 30 32 38 33 42
52 52 73 87 92 90 92 93 96 98 98 98 96 85 62 51 45 39 35 34 32 28 25 20 17 14 13 14 11 12 14 18 18 23 28 32 34 32 33 35 36 40 43 41 40 41 45
76 60 59 54 99 89 97 91 94 97 97 98 99 97 94 64 51 48 40 35 30 32 34 32 25 22 22 16 17 21 19 23 26 27 30 38 39 35 38 35 38 51 37 35 36 37 39
60 56 62 59 84 67 96 96 90 96 97 98 98 98 97 85 75 52 47 42 38 33 32 29 24 23 22 23 24 28 30 32 34 40 38 39 37 41 49 51 72 46 42 37 42 43 44
76 64 64 55 48 95 66 92 91 97 97 96 97 98 97 92 77 66 56 49 43 37 38 44 38 32 36 34 34 43 55 55 56 52 50 47 48 52 57 67 47 56 49 42 42 41 42
54 76 66 65 53 44 75 95 96 94 96 96 97 98 98 97 94 94 67 57 55 49 39 34 34 33 48 53 55 61 62 63 61 68 65 66 63 61 75 78 83 50 49 53 53 50 49
28 61 73 66 59 44 26 95 91 92 95 96 96 97 98 97 94 96 94 67 51 43 42 39 46 62 67 68 66 63 62 54 52 63 60 76 81 77 76 77 68 66 63 57 63 53 53
31 48 70 73 58 56 21 73 88 85 98 96 80 84 95 96 97 96 95 96 96 92 59 58 58 76 80 85 82 69 64 56 53 50 49 48 75 92 97 97 89 76 75 66 59 61 62
59 38 68 69 67 56 52 18 61 75 90 96 88 88 90 99 96 97 96 96 96 96 97 96 93 87 78 79 80 75 63 61 61 59 56 55 56 62 66 79 75 78 80 75 77 64 58
Wind_Speed
18 21 22 21 22 24 24 21 18 17 15 16 14 11 13 13 12 11 13 16 17 12 15 16 18 17 19 21 19 29 34 38 37 37 43 39 37 22 20 22 20 19 17 19 16 16 16
18 18 20 23 21 20 23 23 20 17 15 13 14 11 11 11 11 11 10 8 18 19 17 16 16 17 16 17 17 29 35 36 36 38 41 37 24 24 21 19 20 19 21 16 17 18 18
18 20 19 20 23 21 19 22 22 18 16 13 12 10 7 9 10 11 9 13 19 19 19 16 14 11 12 13 11 28 33 33 32 39 43 27 34 25 20 20 20 21 16 20 19 17 18
19 18 20 20 20 23 21 19 20 20 15 14 11 11 7 7 9 10 10 10 15 15 12 12 7 5 10 12 18 24 29 30 29 36 37 33 29 26 20 17 16 20 19 16 15 18 17
19 18 19 21 20 20 22 20 18 19 18 11 11 9 9 5 6 8 8 9 10 10 7 5 4 4 9 16 21 23 24 26 29 32 31 32 28 24 24 16 15 18 13 18 14 14 17
18 19 19 19 21 20 19 21 19 18 18 13 7 8 5 5 2 6 7 7 7 6 5 5 8 7 14 19 20 22 25 25 27 27 26 26 24 25 23 23 15 15 20 14 15 13 14
19 19 20 20 19 20 20 17 19 17 16 16 9 5 6 3 3 2 6 6 6 4 4 2 5 4 16 19 20 22 23 24 25 25 25 25 26 27 21 22 20 11 14 14 13 13 13
23 22 22 21 22 20 20 20 16 17 15 14 14 6 4 6 3 3 5 5 5 4 5 5 4 13 16 19 20 21 21 23 23 22 22 21 23 21 22 22 20 15 13 12 12 13 14
28 27 25 24 23 24 22 19 20 17 15 13 12 12 6 5 7 6 6 6 7 6 5 5 8 14 17 18 19 21 21 20 21 22 22 21 17 22 20 19 19 18 16 15 13 11 13
34 32 30 29 26 25 24 23 20 21 18 14 11 11 9 7 7 8 8 8 6 6 6 8 13 15 16 18 18 21 22 20 21 20 21 17 18 19 18 18 17 14 14 13 13 9 7
41 39 37 34 32 29 27 26 24 21 20 19 15 11 11 9 9 8 9 10 7 6 3 9 18 18 19 19 16 22 22 21 19 19 22 15 18 17 18 18 15 13 12 12 12 12 12
51 48 45 42 38 35 32 29 28 26 22 22 18 16 12 13 10 12 11 12 7 5 7 11 18 19 23 24 17 22 24 22 19 17 21 16 14 17 18 16 16 12 12 10 10 8 4
53 54 53 48 44 41 38 35 31 29 27 24 23 20 17 14 14 12 15 16 8 8 6 10 17 20 23 23 22 21 25 26 19 18 20 20 17 18 17 18 18 18 13 2 1 1 5
57 58 55 55 51 46 42 40 36 33 30 28 26 24 21 18 16 16 17 19 13 9 16 8 17 22 24 23 22 23 23 26 27 21 19 20 11 21 20 22 14 21 18 6 7 4 3
55 58 60 58 59 55 48 43 41 37 33 29 30 27 25 21 21 20 21 24 15 20 15 15 15 22 25 25 18 25 26 28 26 24 13 19 12 19 16 23 19 18 18 16 3 1 1
50 49 57 54 57 56 56 48 41 40 36 32 30 31 28 26 23 24 26 32 21 22 13 15 17 16 20 26 24 22 21 19 27 26 24 12 7 15 21 20 22 16 16 8 8 3 4
46 45 47 46 44 47 48 50 46 38 38 34 33 33 33 28 28 29 36 37 34 28 17 16 16 16 19 22 26 23 13 16 24 24 26 20 14 10 19 20 23 23 19 11 7 5 4
36 36 36 33 40 46 49 47 43 45 37 35 34 35 34 30 33 37 40 38 34 28 26 28 20 18 19 20 21 26 21 16 15 23 25 25 12 10 17 14 18 22 22 22 11 7 9
32 30 30 41 26 25 45 44 38 44 46 36 34 35 36 32 38 38 38 38 34 33 30 26 24 26 24 22 15 21 21 21 16 16 13 22 14 7 2 13 19 22 25 26 27 17 13
37 32 32 34 38 29 14 42 32 36 39 43 33 32 37 39 39 35 36 38 35 31 30 30 29 26 24 25 25 12 24 21 21 21 23 20 20 18 20 9 8 22 25 27 26 15 23
32 34 36 26 23 35 33 21 27 31 30 33 39 38 33 26 41 38 36 36 33 34 31 29 33 32 28 29 28 29 23 23 24 25 25 25 21 25 24 19 17 18 20 21 27 29 30
32 28 22 24 24 25 36 22 10 29 31 32 33 39 40 40 34 28 34 44 40 33 30 33 35 30 30 31 30 29 31 30 27 26 29 31 22 25 23 23 22 25 22 20 23 27 31
30 31 25 25 19 19 16 31 26 12 31 32 31 33 42 38 38 35 40 38 35 39 36 31 26 25 28 26 30 26 25 25 27 26 27 31 30 23 13 22 23 23 33 33 35 34 34
31 30 31 25 27 28 22 18 28 15 13 30 30 34 33 46 36 39 38 36 33 28 24 29 26 31 31 23 23 27 26 24 26 27 24 26 28 24 7 11 3 16 18 19 23 27 30
30 30 31 29 27 24 26 23 26 24 10 15 30 28 31 37 44 37 30 30 31 33 30 26 23 21 20 23 25 24 21 22 24 25 26 24 23 15 9 19 21 17 16 14 15 20 21
29 29 30 28 27 25 29 27 20 23 24 15 21 27 26 32 35 39 29 32 26 24 27 27 26 25 22 23 23 20 13 14 13 14 28 26 26 25 14 6 8 8 8 14 19 23 22
29 29 29 28 28 24 25 23 29 26 24 23 19 25 29 35 30 31 37 32 27 29 29 26 22 22 24 27 27 23 18 16 13 15 20 31 30 32 29 15 14 15 11 13 16 16 10
30 28 28 28 29 27 24 23 28 29 24 26 24 25 24 34 37 35 32 32 39 42 32 30 25 28 29 29 26 18 16 20 18 18 21 25 26 24 25 14 14 19 18 19 15 15 12
28 28 28 28 27 28 26 24 31 28 22 19 27 24 26 30 29 27 35 33 30 28 31 38 34 25 24 24 28 21 20 20 24 27 26 24 28 24 21 17 20 14 18 17 15 12 13
Wind_Direction
11 11 10 11 9 9 7 8 4 359 6 7 2 28 40 40 44 40 49 57 85 106 139 160 169 183 189 183 188 183 179 181 184 186 191 196 208 224 219 220 217 221 222 228 232 235 240
357 4 6 4 7 9 7 6 8 360 357 8 3 12 42 44 51 55 55 68 113 102 107 130 145 161 170 179 183 181 180 182 182 184 188 196 211 229 220 217 216 223 227 232 235 241 245
354 352 357 2 0 2 8 5 5 5 354 358 8 7 33 57 59 66 70 87 116 121 124 124 136 148 164 182 195 178 183 185 182 186 182 186 203 221 212 215 223 225 231 235 238 241 246
350 352 350 351 358 357 358 5 3 3 1 347 1 4 16 61 67 75 89 104 104 112 118 120 118 138 177 192 172 176 183 186 183 182 183 183 208 207 210 217 223 226 232 233 236 236 239
338 343 348 347 348 354 353 353 358 360 2 356 347 357 358 26 82 88 95 115 121 112 116 114 113 162 167 172 169 170 177 179 178 178 177 189 197 205 210 219 221 220 229 228 230 230 232
325 328 332 339 340 343 349 347 349 351 356 360 352 343 347 350 66 114 118 123 121 121 117 107 131 148 165 167 165 167 170 176 178 175 178 188 195 210 212 216 216 223 220 221 216 224 229
310 315 319 322 327 332 336 341 342 344 343 349 349 341 323 324 320 161 146 153 156 178 175 157 182 232 170 167 167 169 171 177 180 180 187 190 202 210 217 221 225 229 222 227 225 228 234
298 302 305 309 313 316 322 327 331 333 336 336 339 328 307 298 270 236 198 183 197 221 230 266 214 168 171 170 173 174 176 183 184 186 193 202 213 216 217 217 221 223 220 221 228 230 247
288 289 291 296 300 305 307 312 317 320 322 323 324 326 298 279 267 233 245 244 244 216 254 235 189 178 177 178 182 183 184 188 189 195 199 206 217 216 216 217 219 223 232 235 237 243 250
285 285 286 285 287 291 294 297 301 306 307 308 304 306 308 261 253 248 237 249 225 243 261 224 196 186 188 188 191 190 192 192 192 200 204 213 218 211 214 216 219 225 233 233 233 235 244
283 282 280 278 278 278 281 286 288 290 296 296 293 283 286 278 241 248 249 212 219 237 343 197 198 192 192 187 197 195 194 197 200 203 198 205 209 208 212 219 218 222 222 221 232 238 251
280 277 275 273 271 272 271 273 278 281 281 285 284 278 264 267 250 236 224 216 233 228 256 200 193 201 195 194 193 195 195 199 201 204 205 210 206 206 213 210 209 216 212 221 237 243 256
279 275 273 271 268 265 264 263 265 270 272 273 276 273 264 253 253 230 221 213 226 222 227 215 205 200 199 198 197 197 200 200 197 189 200 206 206 205 205 205 205 207 193 188 308 221 218
277 275 273 266 264 264 261 260 257 258 263 264 266 266 262 252 242 235 218 211 220 238 224 219 205 201 203 199 203 201 203 206 208 204 200 197 201 210 209 207 208 208 202 203 201 194 228
279 273 272 267 261 258 258 256 255 253 253 257 258 259 257 249 245 231 221 213 223 241 240 226 205 202 206 207 208 210 211 214 215 211 204 198 201 203 204 208 203 206 213 223 196 224 303
290 283 278 274 265 260 255 251 248 251 249 249 250 252 251 249 238 235 225 230 228 232 232 217 219 211 210 209 206 204 210 225 219 215 213 207 185 203 204 206 209 210 202 188 196 138 244
299 290 285 288 267 260 256 255 249 247 250 244 247 245 244 239 240 229 231 233 240 236 234 238 230 220 216 217 215 212 206 217 210 213 212 212 211 194 201 210 214 208 206 204 191 199 169
302 305 287 291 269 256 252 248 256 252 251 245 243 241 240 236 232 233 237 241 240 244 244 241 239 235 228 222 217 215 221 219 214 211 210 208 205 199 207 218 220 221 230 232 221 215 208
302 313 306 275 295 255 249 248 243 254 251 247 241 239 235 231 229 232 241 244 244 245 244 241 239 235 233 229 218 217 220 219 217 208 213 209 205 164 192 240 233 229 230 231 228 237 218
293 296 316 309 298 299 233 241 232 238 246 245 239 233 233 232 233 232 238 244 242 244 244 242 243 237 233 230 227 230 223 223 222 216 214 214 216 216 210 222 213 221 237 235 232 228 242
312 294 298 306 301 298 305 197 199 237 235 239 236 233 229 234 236 237 238 240 243 239 238 241 241 240 237 231 227 226 225 228 227 226 223 218 219 226 234 237 239 244 251 242 234 248 240
316 312 294 293 310 319 295 301 300 206 231 233 238 228 231 234 238 231 237 238 241 239 237 237 239 243 244 237 241 242 235 235 233 229 221 220 223 230 236 241 249 252 246 247 247 246 252
315 321 306 281 302 301 294 291 304 190 198 229 238 240 230 234 232 233 240 245 246 243 242 243 242 239 245 248 242 238 241 239 244 242 236 223 224 228 237 246 253 258 248 249 253 258 260
325 317 321 301 278 282 303 292 295 287 212 211 222 229 235 233 230 232 236 240 237 239 243 241 242 240 241 238 241 240 239 237 233 231 229 233 228 227 233 214 262 250 242 242 242 254 258
317 322 317 317 295 271 282 275 278 274 286 247 213 224 225 237 235 231 230 237 241 237 237 235 231 237 239 236 234 227 225 225 223 226 224 222 223 214 217 207 255 258 251 247 244 265 260
312 315 321 318 316 282 274 282 294 279 265 293 242 224 230 237 242 234 237 228 224 226 232 237 235 233 233 225 210 206 199 208 205 210 219 221 222 223 214 208 221 254 252 246 254 247 251
311 312 313 318 316 310 282 278 274 273 274 261 250 235 241 243 245 243 235 224 229 230 232 234 228 224 228 228 221 215 212 208 205 200 207 210 216 220 229 238 253 253 238 229 219 273 246
316 309 310 312 318 318 294 274 269 270 275 259 251 244 239 249 250 250 253 249 234 232 227 230 226 224 224 220 223 223 224 217 222 231 231 228 213 216 221 228 253 244 239 223 243 244 251
309 311 306 309 311 317 313 298 270 273 281 265 257 244 243 244 247 250 246 248 244 239 233 216 216 210 217 221 225 229 239 239 239 237 232 227 230 230 225 227 237 233 223 230 242 249 264